Station CASM1 - 8418150 - Portland, ME Image indicating link to RSS feed of recent meteorological observations for station CASM1


Conditions at CASM1 as of
(8:30 pm EDT on 05/23/2024)
0030 GMT on 05/24/2024:
     

Click on the graph icon in the table below to see a time series plot of the last five days of that observation.

5-day plot - Wind Speed Wind Speed (WSPD): 0.0 kts
5-day plot - Wind Gust Wind Gust (GST): 1.9 kts
5-day plot - Atmospheric Pressure Atmospheric Pressure (PRES):29.68 in
5-day plot - Air Temperature Air Temperature (ATMP): 63.1 °F
5-day plot - Water Temperature Water Temperature (WTMP): 54.3 °F
5-day plot - Wind Speed at 10 Meters Wind Speed at 10 meters (WSPD10M): 1.9 kts
5-day plot - Wind Speed at 20 Meters Wind Speed at 20 meters (WSPD20M): 1.9 kts
5-day plot -  Wind Speed, Wind Gust and Atmospheric Pressure Combined plot of Wind Speed, Gust, and Air Pressure
NOS Water Level Observation Network Water Level
Previous observations
TIME
(EDT)
5-day plot - Wind Direction
WDIR
 
5-day plot - Wind Speed
WSPD
kts
5-day plot - Wind Gust
GST
kts
5-day plot - Wave Height
WVHT
ft
5-day plot - Dominant Wave Period
DPD
sec
5-day plot - Average Wave Period
APD
sec
5-day plot - Mean Wave Direction
MWD
 
5-day plot - Atmospheric Pressure
PRES
in
5-day plot - Pressure Tendency
PTDY
in
5-day plot - Air Temperature
ATMP
°F
5-day plot - Water Temperature
WTMP
°F
5-day plot - Dew Point
DEWP
°F
5-day plot - Salinity
SAL
psu
5-day plot - Visibility
VIS
nmi
5-day plot - Tide (above MLLW)
TIDE
ft
2024-05-23 08:24 pm- 0.0 1.0----29.68- 69.4 54.1----
2024-05-23 08:18 pmENE 1.0 2.9----29.68- 71.2 54.3----
2024-05-23 08:12 pm N 4.1 6.0----29.68- 70.2 54.5----
2024-05-23 08:06 pmNNE 4.1 5.1----29.68- 68.2 54.5----
2024-05-23 08:00 pmNNE 1.9 2.9----29.68+0.00 69.3 54.7----
2024-05-23 07:54 pmNNE 1.9 4.1----29.68- 71.2 54.9----
2024-05-23 07:48 pmNNE 2.9 4.1----29.68- 71.1 55.0----
2024-05-23 07:42 pmWSW 1.0 7.0----29.68- 71.8 55.0----
2024-05-23 07:36 pmSSE 2.9 6.0----29.68- 72.9 55.0----
2024-05-23 07:30 pmSSW 4.1 5.1----29.68- 74.1 55.0----
2024-05-23 07:24 pm S 2.9 5.1----29.68- 75.0 55.0----
2024-05-23 07:18 pm SW 4.1 6.0----29.68- 75.2 55.2----
2024-05-23 07:00 pmSSW 8.9 11.1----29.67-0.02 75.0 55.4----
2024-05-23 06:54 pmSSW 9.9 12.0----29.67- 75.4 55.2----
2024-05-23 06:48 pmSSW 8.0 9.9----29.67- 75.4 55.2----
2024-05-23 06:42 pmSSW 8.9 9.9----29.67- 74.1 55.2----
2024-05-23 06:36 pm S 8.0 8.9----29.67- 73.6 55.4----
2024-05-23 06:30 pmSSW 7.0 9.9----29.66- 75.0 55.4----
2024-05-23 06:24 pmSSW 8.0 11.1----29.66- 73.6 55.4----
2024-05-23 06:18 pmSSW 8.0 8.9----29.66- 73.8 55.6----
2024-05-23 06:12 pmSSW 8.0 11.1----29.66- 73.9 55.6----
2024-05-23 06:06 pm S 8.9 9.9----29.67- 73.6 55.8----
2024-05-23 06:00 pm S 7.0 9.9----29.67-0.03 73.8 55.6----
2024-05-23 05:54 pm S 7.0 12.0----29.66- 73.8 55.6----
2024-05-23 05:48 pm S 11.1 13.0----29.67- 75.0 55.4----
2024-05-23 05:42 pm S 8.9 12.0----29.67- 75.0 55.2----
2024-05-23 05:36 pm S 8.9 13.0----29.67- 74.3 55.2----
2024-05-23 05:30 pm S 12.0 15.0----29.68- 74.5 55.0----
2024-05-23 05:24 pm S 13.0 15.9----29.69- 73.8 55.0----
2024-05-23 05:18 pm S 11.1 15.9----29.68- 74.5 55.0----
2024-05-23 05:12 pm S 11.1 14.0----29.68- 74.1 55.0----
2024-05-23 05:06 pm S 13.0 14.0----29.68- 75.4 55.2----
2024-05-23 05:00 pm S 8.9 11.1----29.68-0.03 73.6 55.6----
2024-05-23 04:54 pmSSW 9.9 12.0----29.67- 74.7 55.4----
2024-05-23 04:48 pmSSW 9.9 12.0----29.67- 74.8 55.4----
2024-05-23 04:42 pmSSW 11.1 14.0----29.67- 74.5 55.2----
2024-05-23 04:36 pmSSW 9.9 14.0----29.67- 73.6 54.9----
2024-05-23 04:30 pmSSW 13.0 17.1----29.68- 72.7 54.9----
2024-05-23 04:24 pmSSW 14.0 19.0----29.68- 71.8 54.7----
2024-05-23 04:18 pmSSW 15.9 22.0----29.68- 70.7 54.7----
2024-05-23 04:12 pmSSW 17.1 25.1----29.69- 70.0 54.5----
2024-05-23 04:06 pmSSW 15.9 20.0----29.69- 69.6 54.3----
2024-05-23 04:00 pmSSW 18.1 21.0----29.69-0.01 69.4 54.3----
2024-05-23 03:54 pmSSW 14.0 21.0----29.69- 68.9 54.1----
2024-05-23 03:48 pm S 15.0 21.0----29.70- 67.3 54.0----
2024-05-23 03:42 pmSSW 17.1 21.0----29.70- 67.8 54.0----
2024-05-23 03:36 pmSSW 18.1 21.0----29.70- 66.7 54.1----
2024-05-23 03:30 pmSSW 15.9 19.0----29.70- 65.7 54.3----
2024-05-23 03:24 pmSSW 13.0 19.0----29.70- 64.9 54.1----
2024-05-23 03:18 pm S 15.9 22.0----29.70- 64.4 53.8----
2024-05-23 03:12 pm S 20.0 28.0----29.70- 65.3 53.8----
2024-05-23 03:06 pm S 17.1 21.0----29.70- 69.4 53.2----
2024-05-23 03:00 pm S 14.0 18.1----29.70-0.02 74.1 52.9----
2024-05-23 02:54 pm S 4.1 5.1----29.68- 78.1 53.1----
2024-05-23 02:48 pm S 5.1 6.0----29.69- 77.9 53.1----
2024-05-23 02:42 pm S 6.0 8.0----29.69- 78.1 53.2----
2024-05-23 02:36 pm S 6.0 8.0----29.69- 77.9 53.2----
2024-05-23 02:30 pm S 8.0 8.9----29.70- 77.7 53.4----
2024-05-23 02:24 pmSSW 6.0 8.0----29.70- 76.1 53.2----
2024-05-23 02:18 pmSSW 5.1 6.0----29.70- 75.4 52.9----
2024-05-23 02:12 pmSSW 6.0 8.0----29.70- 73.0 52.7----
2024-05-23 02:06 pm S 7.0 8.0----29.70- 72.9 52.7----
2024-05-23 02:00 pm S 8.9 12.0----29.71-0.01 73.0 52.7----
2024-05-23 01:54 pm S 11.1 12.0----29.70- 71.8 52.7----
2024-05-23 01:48 pm S 12.0 12.0----29.70-- 52.7----
2024-05-23 01:42 pm S 9.9 13.0----29.70-- 52.7----
2024-05-23 01:36 pm S 9.9 12.0----29.70-- 52.7----
2024-05-23 01:30 pm S 9.9 12.0----29.70- 73.0 52.7----
2024-05-23 01:24 pm S 9.9 11.1----29.70- 72.5 52.7----
2024-05-23 01:18 pm S 9.9 11.1----29.70- 72.5 52.7----
2024-05-23 01:12 pm S 8.9 11.1----29.70- 72.5 52.7----
2024-05-23 01:06 pm S 11.1 11.1----29.71- 73.8 52.7----
2024-05-23 01:00 pm S 8.9 9.9----29.71-0.02 74.3 52.5----
2024-05-23 12:54 pm S 8.0 8.9----29.71- 75.2 52.5----
2024-05-23 12:48 pm S 2.9 8.0----29.71- 71.4 52.5----
2024-05-23 12:42 pm S 5.1 8.0----29.71- 72.9 52.5----
2024-05-23 12:36 pm S 6.0 7.0----29.71- 75.7 52.5----
2024-05-23 12:30 pm S 6.0 6.0----29.71- 75.4 52.7----
2024-05-23 12:24 pm S 6.0 7.0----29.71- 73.9 52.7----
2024-05-23 12:18 pm S 6.0 7.0----29.71- 73.0 52.9----
2024-05-23 12:12 pm S 6.0 8.0----29.71- 71.8 52.9----
2024-05-23 12:06 pm S 8.0 8.0----29.72- 74.7 52.9----
2024-05-23 12:00 pm S 7.0 8.9----29.72-0.01 74.3 52.9----
2024-05-23 11:54 am S 8.9 11.1----29.71- 73.2 52.7----
2024-05-23 11:48 am S 11.1 12.0----29.72- 73.2 52.7----
2024-05-23 11:42 am S 7.0 9.9----29.72- 73.4 52.5----
2024-05-23 11:36 amSSW 4.1 7.0----29.72- 73.4 52.5----
2024-05-23 11:30 am E 1.0 2.9----29.72- 69.1 52.5----
2024-05-23 11:24 am SE 1.0 2.9----29.71- 73.2 52.3----
2024-05-23 11:18 amESE 2.9 5.1----29.71- 75.4 52.5----
2024-05-23 11:12 am E 4.1 5.1----29.71- 76.5 52.5----
2024-05-23 11:06 am E 2.9 5.1----29.71- 74.3 52.5----
2024-05-23 11:00 am E 1.9 2.9----29.72-0.02 76.3 52.7----
2024-05-23 10:54 am- 0.0 7.0----29.72- 80.2 52.5----
2024-05-23 10:48 amSSW 6.0 6.0----29.72- 76.8 52.5----
2024-05-23 10:42 amWNW 1.9 7.0----29.72- 81.3 52.5----
2024-05-23 10:36 am W 7.0 8.9----29.71- 82.6 52.5----
2024-05-23 10:30 amWSW 7.0 9.9----29.71- 81.7 52.7----
2024-05-23 10:24 amWSW 7.0 12.0----29.72- 82.0 52.7----
2024-05-23 10:18 am SW 5.1 11.1----29.72- 81.5 52.7----
2024-05-23 10:12 amWSW 8.9 12.0----29.72- 80.8 52.7----
2024-05-23 10:06 amWSW 8.0 12.0----29.72- 80.6 52.7----
2024-05-23 10:00 am W 6.0 9.9----29.72+0.00 81.0 52.7----
2024-05-23 09:54 am W 4.1 9.9----29.72- 80.4 52.7----
2024-05-23 09:48 am SW 8.0 11.1----29.72- 79.2 52.7----
2024-05-23 09:42 am SW 7.0 12.0----29.72- 79.2 52.5----
2024-05-23 09:36 am SW 8.0 14.0----29.73- 78.4 52.5----
2024-05-23 09:30 am SW 11.1 14.0----29.73- 78.1 52.3----
2024-05-23 09:24 am SW 8.9 9.9----29.72- 77.7 52.3----
2024-05-23 09:18 amWSW 6.0 9.9----29.72- 77.7 52.7----
2024-05-23 09:12 amWSW 9.9 15.0----29.72- 77.7 53.1----
2024-05-23 09:06 am SW 13.0 15.9----29.73- 78.4 53.2----
2024-05-23 09:00 amWSW 12.0 15.9----29.73+0.00 78.3 53.6----
2024-05-23 08:54 am W 9.9 13.0----29.73- 77.9 54.0----
2024-05-23 08:48 amWSW 7.0 15.0----29.73- 77.2 54.1----
2024-05-23 08:42 am SW 5.1 8.9----29.73- 76.6 54.1----
2024-05-23 08:36 am SW 8.0 8.9----29.73- 76.1 54.3----
2024-05-23 08:30 am SW 8.9 12.0----29.73- 75.7 54.5----
2024-05-23 08:24 am SW 7.0 9.9----29.73- 75.0 54.5----
2024-05-23 08:18 am SW 6.0 9.9----29.74- 73.6 54.5----
2024-05-23 08:12 amSSW 7.0 8.0----29.74- 71.2 54.5----
2024-05-23 08:06 amSSW 7.0 8.0----29.74- 71.1 54.7----
2024-05-23 08:00 amSSW 6.0 9.9----29.74+0.01 70.3 54.7----
2024-05-23 07:54 amSSW 6.0 8.0----29.74- 68.7 54.5----
2024-05-23 07:48 amSSW 6.0 8.0----29.73- 68.2 54.5----
2024-05-23 07:42 amSSW 6.0 8.9----29.73- 67.8 54.3----
2024-05-23 07:36 amSSW 7.0 9.9----29.73- 67.1 54.3----
2024-05-23 07:30 amSSW 7.0 8.9----29.73- 67.1 54.3----
2024-05-23 07:24 amSSW 6.0 8.0----29.73- 67.3 54.3----
2024-05-23 07:18 amSSW 6.0 8.0----29.73- 66.9 54.3----
2024-05-23 07:12 amSSW 6.0 8.9----29.73- 66.7 54.3----
2024-05-23 07:06 amSSW 8.9 11.1----29.73- 66.9 54.3----
2024-05-23 07:00 amSSW 8.0 11.1----29.73+0.00 67.3 54.3----
2024-05-23 06:54 am SW 7.0 8.9----29.73- 67.6 54.5----
2024-05-23 06:48 am SW 5.1 9.9----29.73- 67.5 54.5----
2024-05-23 06:42 am SW 6.0 11.1----29.74- 67.5 54.3----
2024-05-23 06:36 am SW 8.0 9.9----29.73- 67.5 54.3----
2024-05-23 06:30 amSSW 7.0 9.9----29.74- 67.1 54.3----
2024-05-23 06:24 amSSW 5.1 7.0----29.73- 66.6 54.1----
2024-05-23 06:18 am SW 5.1 7.0----29.73- 66.0 54.1----
2024-05-23 06:12 amSSW 4.1 6.0----29.73- 64.8 54.1----
2024-05-23 06:06 amSSW 5.1 7.0----29.73- 66.4 54.1----
2024-05-23 06:00 amSSW 5.1 7.0----29.73-0.01 65.7 54.1----
2024-05-23 05:54 amSSW 2.9 5.1----29.74- 63.0 54.1----
2024-05-23 05:48 amSSW 2.9 6.0----29.73- 63.1 54.0----
2024-05-23 05:42 am SW 4.1 6.0----29.73- 64.4 54.0----
2024-05-23 05:36 amSSW 5.1 7.0----29.73- 64.4 54.0----
2024-05-23 05:30 amSSW 5.1 8.0----29.73- 64.6 53.8----
2024-05-23 05:24 amSSW 6.0 8.0----29.73- 65.3 53.8----
2024-05-23 05:18 amSSW 5.1 7.0----29.73- 65.3 53.8----
2024-05-23 05:12 amSSW 5.1 6.0----29.73- 64.6 53.8----
2024-05-23 05:06 amSSW 4.1 6.0----29.73- 64.6 53.8----
2024-05-23 05:00 am S 2.9 5.1----29.73-0.02 63.9 53.6----
2024-05-23 04:54 amSSW 1.9 2.9----29.73- 63.3 53.6----
2024-05-23 04:48 amSSW 1.9 2.9----29.72- 63.3 53.6----
2024-05-23 04:42 amSSW 1.9 2.9----29.73- 63.9 53.6----
2024-05-23 04:36 am S 1.9 2.9----29.72- 64.2 53.4----
2024-05-23 04:30 am S 2.9 2.9----29.72- 64.0 53.2----
2024-05-23 04:24 amSSW 2.9 4.1----29.72- 63.9 53.2----
2024-05-23 04:18 amSSW 2.9 4.1----29.73- 64.2 53.2----
2024-05-23 04:12 am SW 2.9 5.1----29.73- 65.7 53.2----
2024-05-23 04:06 am SW 2.9 5.1----29.73- 66.0 53.1----
2024-05-23 04:00 am SW 2.9 5.1----29.73-0.02 66.0 53.1----
2024-05-23 03:54 amSSW 2.9 4.1----29.73- 66.2 53.1----
2024-05-23 03:48 amSSW 4.1 7.0----29.73- 66.6 53.1----
2024-05-23 03:42 amSSW 5.1 7.0----29.73- 67.1 53.1----
2024-05-23 03:36 am SW 6.0 8.9----29.74- 67.5 53.2----
2024-05-23 03:30 amSSW 6.0 8.0----29.74- 67.6 53.2----
2024-05-23 03:24 am SW 6.0 7.0----29.74- 67.6 53.2----
2024-05-23 03:18 am SW 7.0 8.9----29.74- 67.6 53.2----
2024-05-23 03:12 am SW 6.0 8.9----29.74- 67.6 53.1----
2024-05-23 03:06 am SW 7.0 8.9----29.74- 67.8 52.7----
2024-05-23 03:00 am SW 7.0 8.9----29.74+0.00 67.6 52.3----
2024-05-23 02:54 am SW 7.0 9.9----29.74- 67.6 52.2----
2024-05-23 02:48 am SW 6.0 8.0----29.74- 67.5 52.0----
2024-05-23 02:42 am SW 5.1 8.0----29.74- 67.1 52.0----
2024-05-23 02:36 amSSW 7.0 8.0----29.74- 67.8 52.2----
2024-05-23 02:30 amSSW 6.0 8.0----29.75- 67.6 52.3----
2024-05-23 02:24 amSSW 6.0 9.9----29.75- 67.5 52.3----
2024-05-23 02:18 am SW 8.0 11.1----29.75- 67.6 52.2----
2024-05-23 02:12 am SW 8.0 8.9----29.75- 67.5 51.8----
2024-05-23 02:06 am SW 8.0 9.9----29.75- 67.1 51.4----
2024-05-23 02:00 am SW 8.0 12.0----29.75+0.00- 51.4----
2024-05-23 01:54 am SW 8.0 8.9----29.75-- 51.3----
2024-05-23 01:48 am SW 5.1 8.0----29.75- 67.5 51.3----
2024-05-23 01:42 am SW 6.0 8.9----29.75- 67.5 51.1----
2024-05-23 01:36 am SW 7.0 8.0----29.75- 67.6 51.3----
2024-05-23 01:30 am SW 7.0 8.9----29.75- 67.8 51.3----
2024-05-23 01:24 am SW 6.0 8.9----29.75- 67.6 51.3----
2024-05-23 01:18 am SW 7.0 8.9----29.75- 67.5 51.4----
2024-05-23 01:12 am SW 7.0 8.9----29.75- 67.5 51.4----
2024-05-23 01:06 am SW 7.0 9.9----29.75- 67.6 51.3----
2024-05-23 01:00 am SW 8.0 9.9----29.75-0.01 68.2 51.3----
2024-05-23 12:54 am SW 7.0 11.1----29.75- 68.5 51.3----
2024-05-23 12:48 am SW 8.0 11.1----29.75- 68.7 51.1----
2024-05-23 12:42 am SW 7.0 9.9----29.75- 68.5 51.1----
2024-05-23 12:36 am SW 8.0 11.1----29.75- 68.5 50.9----
2024-05-23 12:30 am SW 7.0 8.9----29.74- 68.0 50.9----
2024-05-23 12:24 am SW 6.0 8.0----29.74- 67.5 50.9----
2024-05-23 12:18 amSSW 8.0 8.9----29.74- 67.3 50.9----
2024-05-23 12:12 amSSW 7.0 8.0----29.74- 66.9 50.9----
2024-05-23 12:06 am SW 5.1 7.0----29.74- 66.7 50.9----
2024-05-23 12:00 amSSW 6.0 7.0----29.74-0.02 67.5 50.9----
2024-05-22 11:54 pmSSW 6.0 7.0----29.74- 66.2 50.9----
2024-05-22 11:48 pmSSW 5.1 6.0----29.74- 65.7 50.9----
2024-05-22 11:42 pmSSW 5.1 5.1----29.74- 64.0 51.1----
2024-05-22 11:36 pmSSW 4.1 5.1----29.74- 64.9 51.1----
2024-05-22 11:30 pm SW 2.9 5.1----29.74- 66.2 51.3----
2024-05-22 11:24 pmSSW 4.1 6.0----29.74- 66.6 51.4----
2024-05-22 11:18 pm SW 5.1 6.0----29.74- 66.4 51.4----
2024-05-22 11:12 pm SW 5.1 6.0----29.74- 66.2 51.4----
2024-05-22 11:06 pm SW 5.1 7.0----29.75- 66.4 51.4----
2024-05-22 11:00 pmSSW 6.0 8.0----29.75+0.00 66.6 51.4----
2024-05-22 10:54 pmSSW 6.0 8.0----29.75- 66.7 51.3----
2024-05-22 10:48 pm SW 5.1 8.0----29.75- 65.5 51.3----
2024-05-22 10:42 pmSSW 7.0 8.0----29.75- 63.5 51.3----
2024-05-22 10:36 pmSSW 6.0 7.0----29.75- 63.5 51.4----
2024-05-22 10:30 pmSSW 5.1 7.0----29.75- 63.9 51.4----
2024-05-22 10:24 pmSSW 6.0 6.0----29.75- 66.4 51.4----
2024-05-22 10:18 pmSSW 5.1 7.0----29.75- 67.6 51.6----
2024-05-22 10:12 pmSSW 6.0 8.0----29.76- 67.1 51.8----
2024-05-22 10:06 pmSSW 6.0 7.0----29.76- 67.3 52.0----
2024-05-22 10:00 pm SW 5.1 7.0----29.76+0.01 67.1 52.0----
2024-05-22 09:54 pm SW 5.1 7.0----29.76- 67.1 52.2----
2024-05-22 09:48 pmSSW 6.0 8.0----29.76- 67.1 52.3----
2024-05-22 09:42 pmSSW 7.0 8.0----29.76- 66.9 52.3----
2024-05-22 09:36 pmSSW 8.0 9.9----29.77- 66.7 52.3----
2024-05-22 09:30 pmSSW 8.0 9.9----29.77- 67.3 52.3----
2024-05-22 09:24 pmSSW 8.0 9.9----29.77- 67.1 52.3----
2024-05-22 09:18 pmSSW 7.0 9.9----29.77- 67.5 52.3----
2024-05-22 09:12 pmSSW 8.0 9.9----29.77- 67.5 52.2----
2024-05-22 09:06 pmSSW 7.0 9.9----29.76- 67.5 52.2----
2024-05-22 09:00 pmSSW 7.0 12.0----29.77+0.01 66.9 52.2----
2024-05-22 08:54 pmSSW 7.0 9.9----29.76- 67.1 52.3----